Location: Austin
(30.3000°N, 97.7500°W)
Time: 08:15:16
(UTC-05:00)

Okean O Rocket - Pass Details

Date: 11 June 2024
Orbit: 617 x 640 km, 98.1° (Epoch: 22 June)

Event Time Altitude Azimuth Distance (km) Brightness Sun altitude
Exits shadow 21:16:59 10° 144° (SE) 2,039 3.6 -9.0°
Reaches altitude 10° 21:17:03 10° 143° (SE) 2,017 3.6 -9.0°
Maximum altitude 21:21:09 40° 74° (ENE) 932 2.2 -9.7°
Drops below altitude 10° 21:25:16 10° 5° (N) 2,016 4.6 -10.4°
Sets 21:27:33 0° 358° (N) 2,923 5.6 -10.8°
